Regional Weather Roundup
Issued by NWS Pendleton, OR

Home | Current Version | Previous Version | Text Only | Print | Product List | Glossary On
Versions: 1 2 3 4 5 6 7 8 9 10 11 12 13 14 15 16 17 18 19 20 21 22 23 24 25 26 27 28 29 30 31 32 33 34 35 36 37 38
000
ASUS46 KPDT 271925
RWRPDT
PENDLETON REGIONAL WEATHER ROUNDUP
NATIONAL WEATHER SERVICE PENDLETON OREGON
1100 AM PST SAT DEC 27 2014

NOTE: FAIR INDICATES FEW OR NO CLOUDS BELOW 12,000 FEET WITH NO
SIGNIFICANT WEATHER AND/OR OBSTRUCTIONS TO VISIBILITY.

# INDICATES UNOFFICIAL STATION AND DATA

WAZ520-272010-
EAST SLOPES OF WASHINGTON CASCADES

CITY            SKY/WX      TMP DP  RH  WIND    PRES   REMARKS
#BULLFROG 2SW   N/A         37  37  100 CALM    27.63F
#BUMPING DAM    N/A         34  N/A N/A S2      N/A
#CLE ELUM HS    N/A         34  32  92  CALM    30.03F
#CLE ELUM 2NW   N/A         33  32  96  CALM    N/A
#CLE ELUM LAKE  N/A         34  32  92  E1      30.09F
#CLIFFDEL 2NW   N/A         32  31  96  N1      N/A
#GLENWOOD       N/A         38  36  92  SW7     30.21F
#MANASTASH CYN  N/A         32  27  82  CALM    30.00F
#NELSON         N/A         33  32  96  CALM    30.11F
#NELSON 3SW     N/A         33  32  96  CALM    30.31F
#NILE           N/A         32  30  92  CALM    29.37F
#RONALD 2NW     N/A         33  31  92  E1      29.90F
#SNOWDEN        N/A         38  35  89  NW2     N/A
#TEANAWAY 4NE   N/A         31  31  100 CALM    N/A
#TROUT LAKE HS  N/A         40  38  92  NW2     N/A
#TROUT LAKE 1NE N/A         37  36  96  CALM    30.22F
$$

WAZ521-272010-
SIMCOE HIGHLANDS

CITY            SKY/WX      TMP DP  RH  WIND    PRES   REMARKS
#BICKLETON HS   N/A         35  34  96  W7      34.25S
#CENTERVILLE 1SWN/A         38  34  85  NW3     30.18F
#GOLDENDALE     N/A         37  36  96  W1      N/A
#GOLDENDALE 1NE N/A         38  38  100 SW3     N/A
#GOLDENDALE 1S  N/A         37  35  92  SW5     30.12F
#GOLDENDALE 5WNWN/A         38  36  92  CALM    30.20F
#GOODNOE HILLS  N/A         39  33  79  W12     N/A    WCI 32
#LYLE 6NE       N/A         37  36  96  S1      30.19F
$$

WAZ026-272010-
KITTITAS VALLEY

CITY            SKY/WX      TMP DP  RH  WIND    PRES   REMARKS
ELLENSBURG AP   PTCLDY      34  28  78  CALM    30.07F
#ELLENSBURG CWU N/A         32  28  85  CALM    30.09F
#ELLENSBURG 3NE N/A         33  30  89  NW2     30.07F
#ELLENSBURG     N/A         36  34  92  CALM    N/A
#ELLENSBURG 1E  N/A         33  28  82  CALM    N/A
#KITTITAS 3S    N/A         30  28  92  CALM    30.13F
#THORP 6N       N/A         33  31  92  CALM    30.14F
$$

WAZ027-272010-
YAKIMA VALLEY

CITY            SKY/WX      TMP DP  RH  WIND    PRES   REMARKS
YAKIMA AIRPORT  MOCLDY      33  27  78  CALM    30.13F
YAKIMA-VAGABOND MOCLDY      31  27  85  VRB1    30.11F
#DONALD 2NE     N/A         38  30  73  CALM    28.95F
#GRANDVIEW      N/A         36  34  92  CALM    30.17F
#MABTON         N/A         33  31  92  CALM    30.15F
#NACHES 2SW     N/A         33  29  85  CALM    30.10F
#OUTLOOK DOT    N/A         N/A N/A N/A CALM    N/A
#SELAH 8E       N/A         34  29  82  NW5     N/A
#TERRACE HTS    N/A         33  29  85  CALM    30.13F
#TOPPENISH      N/A         31  29  92  CALM    30.09F
#WAPATO 4NE     N/A         38  30  73  CALM    28.95F
#WEST VALLEY    N/A         32  28  85  CALM    30.15F
#W YAKIMA       N/A         33  28  82  CALM    30.16F
#WHITE SWAN 5E  N/A         31  29  92  E2      30.17F
#WILEY CITY 3W  N/A         32  25  75  CALM    30.13F
$$

WAZ028-272010-
LOWER COLUMBIA BASIN...WASHINGTON

CITY            SKY/WX      TMP DP  RH  WIND    PRES   REMARKS
6HR MIN TEMP:   29; 6HR MAX TEMP:   31; 6HR PCP:  TRACE;

PASCO           LGT RAIN    43  34  70  SW12G25 30.18F WCI 37
PROSSER AWOS    N/A         43  37  79  S6      30.15F
RICHLAND AWOS   CLOUDY      41  34  76  SW7     30.16F
#BASIN CITY 5SW N/A         39  37  92  S7      30.13F
#BENTON CITY    N/A         38  34  85  S22G35  30.06F WCI 27
#CONNELL 5N     N/A         37  34  89  S7      30.15F
#CONNELL 5NW    N/A         37  33  85  S10     30.11F
#ELTOPIA        N/A         40  36  85  S6      30.15F
#ELTOPIA 6NW    N/A         37  35  92  S5      29.09F
#KAHLOTUS       N/A         38  32  79  SW15G25 30.16F WCI 29
#KENNEWICK      N/A         37  37  100 CALM    27.63F
#KENNEWICK 3S   N/A         40  34  79  S12     30.16F WCI 33
#PASCO-BROADMOORN/A         43  34  70  NW2     30.10F
#PATERSON       N/A         36  34  92  CALM    30.19F
#PROSSER        N/A         38  33  82  S16G24  30.16F WCI 29
#SAGEMOOR 2W    N/A         38  36  92  E2      30.01F
#TOUCHET 2S     N/A         47  34  60  SW15    30.16F WCI 41
#WEST PASCO     N/A         43  35  73  S5      30.19F
$$

WAZ029-272010-
FOOTHILLS OF THE BLUES...WASHINGTON

CITY            SKY/WX      TMP DP  RH  WIND    PRES   REMARKS
WALLA WALLA AP  LGT RAIN    46  33  60  S14     30.17F WCI 40
#COLLEGE PLACE  N/A         46  32  58  SE7     30.18F
#DAYTON SCHOOL  N/A         43  27  53  S14     30.15F WCI 36
#LOWDEN 2SE     N/A         46  36  68  SE7     30.14F
#PLEASANT VIEW 1N/A         38  34  85  S15     30.21F WCI 29
#PRESCOTT       N/A         43  37  79  S1      30.18F
#SUDBURY        N/A         46  N/A N/A CALM    N/A
#WHITMAN COLLEGEN/A         45  34  65  S3      30.25F
#WAITSBURG 5S   N/A         42  35  76  S15     30.29F WCI 34
#WAITSBURG 8N   N/A         40  18  41  S10     30.12S
#WALLA WALLA 5E N/A         46  35  65  S13     N/A    WCI 40
#WALLA WALLA U  N/A         47  35  63  SE3     30.19F
#WHITMAN MISSIONN/A         46  36  68  S7      30.21F
$$

WAZ030-272010-
BLUE MOUNTAINS...WASHINGTON

CITY            SKY/WX      TMP DP  RH  WIND    PRES   REMARKS
#DIXIE 5SE      N/A         35  30  82  S15     30.05F WCI 25
#SKI BLUEWOOD   N/A         30  27  88  S5      30.15F
$$

ORZ009-041-WAZ024-272010-
COLUMBIA RIVER GORGE

CITY            SKY/WX      TMP DP  RH  WIND    PRES   REMARKS
HOOD RIVER AP   LGT RAIN    41  39  93  S3      30.21F
THE DALLES AP   CLOUDY      41  36  82  CALM    30.22F
#ARLINGTON AIRPON/A         40  35  82  W7      30.02S
#ARLINGTON HS   N/A         42  35  76  SE3     30.16F
#CELILO DOT     N/A         42  36  79  SW3     N/A
#LYLE           N/A         40  37  89  CALM    30.23F
#MARYHILL 2W    N/A         41  40  96  S2      N/A
#MOSIER 1S      N/A         40  37  89  CALM    30.21F
#MURDOCK        N/A         42  39  89  CALM    30.24F
#RUFUS DOT      N/A         42  35  76  CALM    N/A

$$

ORZ510-272010-
NORTH CENTRAL OREGON

CITY            SKY/WX      TMP DP  RH  WIND    PRES   REMARKS
#CHENOWITH 1W   N/A         38  38  100 SW2     N/A
#COW CYN RST AREN/A         32  24  72  SW7     N/A
#DUFUR 9E       N/A         38  32  79  SW14    30.27F WCI 30
#GRASS VALLEY   N/A         35  30  82  SW3     N/A
#GRASS VALLEY 1SN/A         36  30  79  SW7     30.27F
#KENT DOT       N/A         38  22  52  SW15    N/A    WCI 29
#MAUPIN SCHOOL  N/A         40  31  70  NW1     30.22F
#MORO SCHOOL    N/A         38  33  82  SW5     30.17F
#SHANIKO 5WSW   N/A         30  19  63  S15     N/A    WCI 19
#SHANIKO 4NW    N/A         30  24  78  S13     30.15F WCI 20
#TYGH VALLEY 2NEN/A         39  30  70  CALM    30.26F
#WAPANITIA AIRPON/A         38  28  67  SW8     30.27F
#WASCO DOT      N/A         41  28  59  SW6     N/A
#WASCO AIRPORT  N/A         40  30  67  W8      N/A
#WASCO 5NE      N/A         40  33  76  N3      30.23F
$$

ORZ511-272010-
CENTRAL OREGON

CITY            SKY/WX      TMP DP  RH  WIND    PRES   REMARKS
BEND AIRPORT    CLOUDY      30  23  75  E3      30.23F
MADRAS AIRPORT  MOCLDY      36  28  72  S8      30.24F
PRINEVILLE AP   MOCLDY      32  27  82  CALM    30.24F
REDMOND AIRPORT CLOUDY      32  24  72  CALM    30.24S
#BEND 1SW       N/A         29  25  85  S2      N/A
#BEND-AWBREY    N/A         32  26  78  SW8     30.34F
#BEND-KIM LN    N/A         32  26  78  SW7     30.18F
#CROOKED RVR RANN/A         35  26  69  SW1     30.33F
#CULVER         N/A         37  26  64  E6      30.18F
#LAKE BILLY CHINN/A         34  14  43  CALM    30.29F
#POWELL BUTTE 3EN/A         31  22  69  E7      N/A
#POWELL BUTTE   N/A         35  29  78  CALM    29.83F
#PRINEVILLE 3N  N/A         32  28  85  N1      30.32F
#WARM SPRINGS   N/A         35  31  85  CALM    30.22F


ORZ509-272010-
EAST SLOPES OF OREGON CASCADES

CITY            SKY/WX      TMP DP  RH  WIND    PRES   REMARKS
#BLUE BOX PASS  N/A         34  -15 11  NW2     N/A
#BLACK BUTTE RNCN/A         35  33  92  CALM    30.33F
#CAMP SHERMAN   N/A         34  30  85  N1      30.39F
#LA PINE DOT    N/A         28  23  81  CALM    N/A
#LA PINE 4NW    N/A         26  22  85  CALM    30.48F
#LAVA BUTTE DOT N/A         27  21  78  SE2     N/A
#MT BACHELOR-MIDN/A         23  19  84  E25G35  N/A    WCI  7
#SISTERS AIRPOR N/A         30  29  96  N1      30.17S
#SISTERS ODOT   N/A         31  N/A N/A CALM    N/A
#SISTERS 1NW    N/A         29  25  85  N9      N/A
#SISTERS 3N     N/A         31  23  72  CALM    30.22S
#SUNRIVER       N/A         26  24  92  SW1     30.31F
#TUMALO 3W      N/A         33  24  69  CALM    30.21F
#WANOGA BUTTE D N/A         28  18  66  NW3     N/A

$$

ORZ044-272010-
LOWER COLUMBIA BASIN...OREGON

CITY            SKY/WX      TMP DP  RH  WIND    PRES   REMARKS
HERMISTON       LGT RAIN    41  34  76  VRB5    30.19F
#BOARDMAN 3W    N/A         39  39  100 SW1     29.91F
#BOARDMAN 8SW   N/A         40  36  85  SW5     30.20F
#ECHO 8SW       N/A         44  34  68  SW8     30.15F
#IONE SCHOOL    N/A         46  32  58  S10     30.16F
#IRRIGON 4NW    N/A         36  36  100 SE1     N/A
#UMATILLA SCHOOLN/A         35  35  100 CALM    30.23F
#UMATILLA       N/A         40  34  79  CALM    30.17F
$$

ORZ507-272010-
NORTHERN FOOTHILLS OF THE BLUES

CITY            SKY/WX      TMP DP  RH  WIND    PRES   REMARKS
PENDLETON AIRPT LGT RAIN    42  30  62  S13     30.17F WCI 35
#ADAMS 3WNW     N/A         38  33  82  CALM    30.23F
#ATHENA         N/A         40  32  73  S2      30.25F
#CAYUSE         N/A         43  34  70  S10     30.21F
#HELIX SCHOOL   N/A         39  33  79  S7      30.22F
#HELIX 3N       N/A         38  32  79  S13     30.11F WCI 30
#HELIX 6SW      N/A         41  33  73  SW10    30.15F
#HOLDMAN 5SE    N/A         41  35  79  S2      30.16F
#HOLDMAN 6E     N/A         39  32  76  N8      30.02F
#M-F GROVE ELEM N/A         45  31  58  SE2     30.14F
#M-FREEWATER 5SEN/A         43  32  65  E6      30.16F
#PENDLETON DNTN N/A         45  29  53  SW5     29.00S
#PDT AQUATIC CTRN/A         45  31  58  S6      30.17S
#PENDLETON 5NE  N/A         42  35  76  CALM    30.13F
#PDT SUNRIDGE   N/A         44  31  60  S9      30.18F
#PENDLETON 7NW  N/A         42  33  70  CALM    25.56
#PILOT ROCK     N/A         43  25  49  S15     30.18F WCI 36
#TUTUILLA       N/A         44  35  70  S3      30.22F
#UMAPINE 2E     N/A         47  35  63  S6      30.15F
#WESTON SCHOOL  N/A         39  28  64  SW8     30.14F

$$

ORZ508-272010-
SOUTHERN FOOTHILLS OF THE BLUES

CITY            SKY/WX      TMP DP  RH  WIND    PRES   REMARKS
LEXINGTON       MOCLDY      39  34  82  SE15    30.18F WCI 31
#AJAX           N/A         39  23  52  S5      30.08F
#CONDON SCHOOL  N/A         35  30  82  CALM    30.11F
#CONDON 5W      N/A         31  26  81  S10     30.12F
#FOSSIL SCHOOL  N/A         36  28  72  E2      30.15F
#HEPPNER EOC    N/A         37  31  79  SE6     30.19F
#HEPPNER 4NE    N/A         35  31  85  SW2     30.24F
#LEXINGTON 2SE  N/A         42  34  73  S9      30.16F
#MIKKALO        N/A         41  29  62  SW10    30.14F
#RUGGS 2SW      N/A         35  29  78  S16G24  30.27F WCI 25

$$

ORZ502-503-272010-
BLUE MOUNTAINS

CITY            SKY/WX      TMP DP  RH  WIND    PRES   REMARKS
MEACHAM         LGT SNOW    33  30  89  CALM    30.13F FOG
#BATTLE MTN DOT N/A         25  25  100 S10     N/A
#HARDMAN 10S    N/A         26  24  92  SE7     30.45F
#LADD CYN SMT   N/A         25  18  74  E15     N/A    WCI 13
#LADD CREEK ODOTN/A         29  20  69  S5      N/A
#LONG CREEK HS  N/A         27  27  100 CALM    30.15F
#N POWDER DOT   N/A         26  22  85  CALM    N/A
#PIKES PEAK     N/A         34  30  85  SW20G26 27.99S WCI 23
#TOLLGATE       N/A         27  26  96  CALM    30.01F
#TROY SCHOOL    N/A         33  28  82  CALM    30.15F
#UKIAH          N/A         25  23  92  CALM    30.43F
#WESTON 4E      N/A         33  30  89  CALM    30.21F
$$

ORZ505-272010-
JOHN DAY BASIN

CITY            SKY/WX      TMP DP  RH  WIND    PRES   REMARKS
JOHN DAY        CLOUDY      31  23  72  SE9     30.22F
#JOHN DAY KJDY  N/A         31  25  78  CALM    30.24
#DAYVILLE SCHOOLN/A         32  29  89  CALM    30.16S
#MONUMENT HS    N/A         30  23  75  CALM    30.26F
#MT. VERNON 5SE N/A         29  23  78  CALM    30.16F
#WINLOCK        N/A         32  23  69  CALM    30.28F
$$

ORZ506-272010-
OCHOCO AND JOHN DAY HIGHLANDS

CITY            SKY/WX      TMP DP  RH  WIND    PRES   REMARKS
#BUCK CREEK DOT N/A         31  30  96  CALM    N/A
#HORSE RIDGE DO N/A         28  22  78  CALM    N/A
#KEYES SMT DOT  N/A         23  21  92  SE7     N/A
#PAULINA SCHOOL N/A         28  24  85  CALM    30.21F
#PINE MTN OBS   N/A         31  21  66  SW3     N/A
#PRAIRIE CITY   N/A         25  17  71  CALM    30.44F
#SENECA         N/A         16  N/A N/A CALM    N/A
#SENECA 9NW     N/A         18  16  92  CALM    30.48F
$$

ORZ049-272010-
GRANDE RONDE VALLEY

CITY            SKY/WX      TMP DP  RH  WIND    PRES   REMARKS
LA GRANDE       MOCLDY      30  18  60  S14G24  30.20F WCI 19
#COVE           N/A         32  27  82  E6      30.03S
#COVE SCHOOL    N/A         33  26  75  NE1     30.16F
#COVE 6NW       N/A         29  22  75  S7      30.39F
#ELGIN 3N       N/A         30  18  60  S13     29.91F WCI 20
#ELGIN 1E       N/A         32  24  72  S2      N/A
#ISLAND CITY 4N N/A         43  42  96  CALM    30.24F
#LADD CYN DOT   N/A         29  19  66  S28G39  N/A    WCI 14
#UNION 1S       N/A         30  24  78  S9      30.27F
$$

ORZ050-272010-
WALLOWA COUNTY

CITY            SKY/WX      TMP DP  RH  WIND    PRES   REMARKS
JOSEPH AIRPORT  CLOUDY      27  21  78  N5      30.14F
#ENTERPRISE AP  N/A         25  18  74  CALM    30.07F
#ENTERPRISE HS  N/A         26  22  85  CALM    30.15F
#IMNAHA SCHOOL  N/A         39  24  54  S14G26  30.19F WCI 31
#IMNAHA 10S     N/A         34  25  69  SW8     30.17F
#JOSEPH 3N      N/A         24  18  77  W6      30.14F
#JOSEPH 3W      N/A         25  14  62  CALM    29.93F
#LOSTINE        N/A         22  18  84  CALM    30.17F
#MT HOWARD 8000 N/A         21  N/A N/A CALM    29.96F
#PROMISE 1S     N/A         28  22  78  NE2     30.44F
#SHEEP RDG 7000 N/A         22  20  92  CALM    30.36F
#WALLOWA SCHOOL N/A         24  20  84  CALM    31.37F



$$



USA.gov is the U.S. government's official web portal to all federal, state and local government web resources and services.